WetterOnline ( http://www.wetteronline.de )

Wetter aktuell Altmark

Aktuelles Wetter: Lüchow (18m)

6-stündlich | Neueste Meldungen
Ortszeit Temperatur Wetter
Mi, 17.10. 20:00 12.8° C wolkig
Mi, 17.10. 14:00 20.3° C leicht bewölkt
Mi, 17.10. 8:00 8.0° C Nebel
Mi, 17.10. 2:00 9.0° C bedeckt
Di, 16.10. 20:00 15.7° C fast wolkenlos
Di, 16.10. 14:00 22.5° C fast wolkenlos
Di, 16.10. 8:00 5.3° C wolkenlos
Di, 16.10. 2:00 8.2° C wolkenlos
Ortszeit Temperatur Wetter
Mi, 17.10. 20:30 12.5° C wolkig
Mi, 17.10. 20:20 12.5° C wolkig
Mi, 17.10. 20:10 12.5° C wolkig
Mi, 17.10. 20:00 12.8° C wolkig
Mi, 17.10. 19:50 12.8° C wolkig
Mi, 17.10. 19:40 13.1° C wolkig
Mi, 17.10. 19:30 14.1° C wolkig
Mi, 17.10. 19:00 15.1° C wolkig
Mi, 17.10. 18:30 16.7° C wolkig
Mi, 17.10. 18:00 18.2° C wolkig
Mi, 17.10. 17:30 20.8° C wolkig
Ortszeit Relative Feuchte Sichtweite
Mi, 17.10. 20:00 91% 6 km
Mi, 17.10. 14:00 55% 10 km
Mi, 17.10. 8:00 100% <100 m
Mi, 17.10. 2:00 99% 3.9 km
Di, 16.10. 20:00 81% 17 km
Di, 16.10. 14:00 46% 14 km
Di, 16.10. 8:00 96% 6 km
Di, 16.10. 2:00 93% 12 km
Ortszeit Relative Feuchte Sichtweite
Mi, 17.10. 20:30 94% 5.0 km
Mi, 17.10. 20:20 94% -
Mi, 17.10. 20:10 95% -
Mi, 17.10. 20:00 91% 6 km
Mi, 17.10. 19:50 91% -
Mi, 17.10. 19:40 91% -
Mi, 17.10. 19:30 91% 6 km
Mi, 17.10. 19:00 86% 7 km
Mi, 17.10. 18:30 79% 8 km
Mi, 17.10. 18:00 70% 11 km
Mi, 17.10. 17:30 59% 13 km
Ortszeit Niederschlagsmenge Niederschlagsart
Mi, 17.10. 20:00 0.0 l/m2 in 12 Std. -
Mi, 17.10. 14:00 0.0 l/m2 in 6 Std. -
Mi, 17.10. 8:00 0.0 l/m2 in 12 Std. -
Mi, 17.10. 2:00 0.0 l/m2 in 6 Std. -
Di, 16.10. 20:00 0.0 l/m2 in 12 Std. -
Di, 16.10. 14:00 0.0 l/m2 in 6 Std. -
Di, 16.10. 8:00 0.1 l/m2 in 12 Std. -
Di, 16.10. 2:00 0.1 l/m2 in 6 Std. Niederschlag
Ortszeit Niederschlagsmenge Niederschlagsart
Mi, 17.10. 20:30 0.0 l/m2 in 1 Std. -
Mi, 17.10. 20:20 keine Meldung -
Mi, 17.10. 20:10 keine Meldung -
Mi, 17.10. 20:00 0.0 l/m2 in 1 Std. -
Mi, 17.10. 19:50 keine Meldung -
Mi, 17.10. 19:40 keine Meldung -
Mi, 17.10. 19:30 0.0 l/m2 in 1 Std. -
Mi, 17.10. 19:00 0.0 l/m2 in 1 Std. -
Mi, 17.10. 18:30 0.0 l/m2 in 1 Std. -
Mi, 17.10. 18:00 0.0 l/m2 in 1 Std. -
Mi, 17.10. 17:30 0.0 l/m2 in 1 Std. -
Ortszeit Stärke Spitze Richtung
km/h Bft. km/h Grad Sektor
Mi, 17.10. 20:00 0 0 7 - -
Mi, 17.10. 14:00 4 1 11 140° SO
Mi, 17.10. 8:00 4 1 4 150° SO
Mi, 17.10. 2:00 0 0 7 - -
Di, 16.10. 20:00 4 1 14 360° N
Di, 16.10. 14:00 4 1 11 20° N
Di, 16.10. 8:00 4 1 11 180° S
Di, 16.10. 2:00 4 1 7 110° O
Ortszeit Stärke Spitze Richtung
km/h Bft. km/h Grad Sektor
Mi, 17.10. 20:30 0 0 4 - -
Mi, 17.10. 20:20 0 0 - 110° O
Mi, 17.10. 20:10 0 0 - - -
Mi, 17.10. 20:00 0 0 4 - -
Mi, 17.10. 19:50 2 1 - 260° W
Mi, 17.10. 19:40 2 1 - 250° W
Mi, 17.10. 19:30 0 0 4 - -
Mi, 17.10. 19:00 2 1 4 60° NO
Mi, 17.10. 18:30 0 0 4 - -
Mi, 17.10. 18:00 4 1 4 290° W
Mi, 17.10. 17:30 4 1 4 260° W
Ortszeit Untergrenze Bedeckung Gattung
total tief tief mittel hoch
Mi, 17.10. 20:00 9000 m 7/8 0/8 - - -
Mi, 17.10. 14:00 9000 m 8/8 0/8 - - -
Mi, 17.10. 8:00 <30 m 8/8 8/8 - - -
Mi, 17.10. 2:00 - 8/8 - - - -
Di, 16.10. 20:00 2700 m 1/8 1/8 - - -
Di, 16.10. 14:00 2400 m 1/8 1/8 - - -
Di, 16.10. 8:00 - 0/8 0/8 - - -
Di, 16.10. 2:00 - 0/8 0/8 - - -
Ortszeit Bedeckungsgrad in Achtel und Wolkenuntergrenze
Mi, 17.10. 20:30 1(9000m) 8(10500m)
Mi, 17.10. 20:20 1(9000m) 8(10500m)
Mi, 17.10. 20:10 2(9000m) 8(10500m)
Mi, 17.10. 20:00 4(9000m) 7(10500m)
Mi, 17.10. 19:50 4(9000m) 7(10500m)
Mi, 17.10. 19:40 6(9000m) 7(9000m) 8(10500m)
Mi, 17.10. 19:30 8(9000m) 8(10500m)
Mi, 17.10. 19:00 4(7800m) 8(9000m) 8(10500m)
Mi, 17.10. 18:30 4(8100m) 6(9000m) 8(9000m)
Mi, 17.10. 18:00 2(8400m) 5(9000m) 8(9000m)
Mi, 17.10. 17:30 7(8400m) 8(9000m) 8(9000m)
Ortszeit Luftdruck NN (hPa) Tendenz (hPa in 3 Std.)
Mi, 17.10. 20:00 1019 + 0,7
Mi, 17.10. 14:00 1019 - 1,0
Mi, 17.10. 8:00 1020 + 0,5
Mi, 17.10. 2:00 1020 - 0,4
Di, 16.10. 20:00 1019 + 1,0
Di, 16.10. 14:00 1019 - 0,2
Di, 16.10. 8:00 1018 + 0,8
Di, 16.10. 2:00 1016 + 0,3
Ortszeit Luftdruck NN (hPa) Tendenz (hPa in 3 Std.)
Mi, 17.10. 20:30 1019 + 0,5
Mi, 17.10. 20:20 1019 keine Meldung
Mi, 17.10. 20:10 1019 keine Meldung
Mi, 17.10. 20:00 1019 + 0,7
Mi, 17.10. 19:50 1019 keine Meldung
Mi, 17.10. 19:40 1019 keine Meldung
Mi, 17.10. 19:30 1019 + 0,5
Mi, 17.10. 19:00 1019 + 0,3
Mi, 17.10. 18:30 1019 + 0,1
Mi, 17.10. 18:00 1019 - 0,1
Mi, 17.10. 17:30 1019 - 0,3
Ortszeit Schneehöhe (cm)
Mi, 17.10. 20:00 0
Mi, 17.10. 14:00 0
Mi, 17.10. 8:00 0
Mi, 17.10. 2:00 0
Di, 16.10. 20:00 0
Di, 16.10. 14:00 0
Di, 16.10. 8:00 0
Di, 16.10. 2:00 0
Ortszeit Schneehöhe (cm)
Mi, 17.10. 20:30 0
Mi, 17.10. 20:20 0
Mi, 17.10. 20:10 0
Mi, 17.10. 20:00 0
Mi, 17.10. 19:50 0
Mi, 17.10. 19:40 0
Mi, 17.10. 19:30 0
Mi, 17.10. 19:00 0
Mi, 17.10. 18:30 0
Mi, 17.10. 18:00 0
Mi, 17.10. 17:30 0
Link zu dieser Seite / Seite empfehlen

Das Wetter in ...